Time,TemperatureF,DewpointF,PressureIn,WindDirection,WindDirectionDegrees,WindSpeedMPH,WindSpeedGustMPH,Humidity,HourlyPrecipIn,Conditions,Clouds,dailyrainin,SoftwareType,DateUTC
2013-01-12 00:04:00,23.2,-8.2,25.19,West,274,5.4,5.4,24,0.00,,---,0.00,VWS V14.00,2013-01-12 07:04:00,
2013-01-12 00:09:00,23.2,-8.2,25.19,West,274,5.4,5.4,24,0.00,,---,0.00,VWS V14.00,2013-01-12 07:09:00,
2013-01-12 00:15:00,23.2,-8.2,25.19,West,274,4.0,4.9,24,0.00,,---,0.00,VWS V14.00,2013-01-12 07:15:00,
2013-01-12 00:20:00,23.4,-8.1,25.19,West,274,5.4,6.3,24,0.00,,---,0.00,VWS V14.00,2013-01-12 07:20:00,
2013-01-12 00:25:00,23.9,-7.6,25.19,WSW,253,3.1,4.0,24,0.00,,---,0.00,VWS V14.00,2013-01-12 07:25:00,
2013-01-12 00:30:00,24.3,-7.3,25.19,West,276,3.6,4.0,24,0.00,,---,0.00,VWS V14.00,2013-01-12 07:30:00,
2013-01-12 00:35:00,24.3,-7.3,25.19,West,276,4.0,4.5,24,0.00,,---,0.00,VWS V14.00,2013-01-12 07:35:00,
2013-01-12 00:40:00,23.9,-7.6,25.19,West,278,5.4,5.8,24,0.00,,---,0.00,VWS V14.00,2013-01-12 07:40:00,
2013-01-12 00:45:00,24.1,-7.5,25.19,WNW,283,4.5,4.9,24,0.00,,---,0.00,VWS V14.00,2013-01-12 07:45:00,
2013-01-12 00:50:00,23.2,-8.2,25.19,West,271,5.8,6.3,24,0.00,,---,0.00,VWS V14.00,2013-01-12 07:50:00,
2013-01-12 00:55:00,22.8,-7.7,25.19,West,272,5.4,6.3,25,0.00,,---,0.00,VWS V14.00,2013-01-12 07:55:00,
2013-01-12 01:01:00,23.2,-8.2,25.19,West,272,4.9,5.4,24,0.00,,---,0.00,VWS V14.00,2013-01-12 08:01:00,
2013-01-12 01:06:00,23.0,-7.6,25.19,West,272,5.4,5.4,25,0.00,,---,0.00,VWS V14.00,2013-01-12 08:06:00,
2013-01-12 01:11:00,23.0,-7.6,25.19,West,272,4.0,4.0,25,0.00,,---,0.00,VWS V14.00,2013-01-12 08:11:00,
2013-01-12 01:16:00,23.0,-7.6,25.19,West,272,5.4,5.8,25,0.00,,---,0.00,VWS V14.00,2013-01-12 08:16:00,
2013-01-12 01:21:00,23.2,-8.2,25.19,West,272,0.0,0.0,24,0.00,,---,0.00,VWS V14.00,2013-01-12 08:21:00,
2013-01-12 01:26:00,23.0,-7.6,25.19,West,272,3.6,3.6,25,0.00,,---,0.00,VWS V14.00,2013-01-12 08:26:00,
2013-01-12 01:31:00,22.8,-7.7,25.19,West,272,5.4,5.4,25,0.00,,---,0.00,VWS V14.00,2013-01-12 08:31:00,
2013-01-12 01:36:00,23.5,-7.9,25.19,West,272,4.0,5.8,24,0.00,,---,0.00,VWS V14.00,2013-01-12 08:36:00,
2013-01-12 01:41:00,24.3,-7.3,25.19,West,272,4.0,5.4,24,0.00,,---,0.00,VWS V14.00,2013-01-12 08:41:00,
2013-01-12 01:46:00,24.8,-6.9,25.19,West,272,5.4,5.4,24,0.00,,---,0.00,VWS V14.00,2013-01-12 08:46:00,
2013-01-12 01:52:00,25.0,-6.7,25.19,West,272,5.4,5.4,24,0.00,,---,0.00,VWS V14.00,2013-01-12 08:52:00,
2013-01-12 01:57:00,25.2,-6.6,25.19,West,272,4.9,5.8,24,0.00,,---,0.00,VWS V14.00,2013-01-12 08:57:00,
2013-01-12 02:02:00,25.3,-6.4,25.19,West,272,5.4,5.8,24,0.00,,---,0.00,VWS V14.00,2013-01-12 09:02:00,
2013-01-12 02:07:00,25.3,-6.4,25.19,West,272,4.0,5.4,24,0.00,,---,0.00,VWS V14.00,2013-01-12 09:07:00,
2013-01-12 02:12:00,25.0,-6.7,25.19,West,272,5.8,5.8,24,0.00,,---,0.00,VWS V14.00,2013-01-12 09:12:00,
2013-01-12 02:17:00,24.4,-7.2,25.19,West,272,5.8,5.8,24,0.00,,---,0.00,VWS V14.00,2013-01-12 09:17:00,
2013-01-12 02:22:00,24.1,-7.5,25.19,West,272,5.4,6.3,24,0.00,,---,0.00,VWS V14.00,2013-01-12 09:22:00,
2013-01-12 02:27:00,23.9,-7.6,25.19,West,264,6.3,6.3,24,0.00,,---,0.00,VWS V14.00,2013-01-12 09:27:00,
2013-01-12 02:32:00,23.5,-7.9,25.19,West,261,7.6,7.6,24,0.00,,---,0.00,VWS V14.00,2013-01-12 09:32:00,
2013-01-12 02:38:00,23.4,-8.1,25.19,West,264,5.8,6.7,24,0.00,,---,0.00,VWS V14.00,2013-01-12 09:38:00,
2013-01-12 02:43:00,23.4,-8.1,25.19,West,271,4.9,5.8,24,0.00,,---,0.00,VWS V14.00,2013-01-12 09:43:00,
2013-01-12 02:48:00,22.8,-7.7,25.19,West,271,4.0,5.4,25,0.00,,---,0.00,VWS V14.00,2013-01-12 09:48:00,
2013-01-12 02:53:00,22.5,-8.0,25.19,West,271,4.9,4.9,25,0.00,,---,0.00,VWS V14.00,2013-01-12 09:53:00,
2013-01-12 02:58:00,22.3,-8.2,25.19,West,271,4.9,5.4,25,0.00,,---,0.00,VWS V14.00,2013-01-12 09:58:00,
2013-01-12 03:03:00,22.1,-8.3,25.19,West,271,4.0,4.0,25,0.00,,---,0.00,VWS V14.00,2013-01-12 10:03:00,
2013-01-12 03:08:00,22.1,-8.3,25.19,West,271,4.9,4.9,25,0.00,,---,0.00,VWS V14.00,2013-01-12 10:08:00,
2013-01-12 03:13:00,21.9,-8.5,25.19,West,271,5.8,5.8,25,0.00,,---,0.00,VWS V14.00,2013-01-12 10:13:00,
2013-01-12 03:19:00,22.1,-8.3,25.19,West,271,4.0,5.4,25,0.00,,---,0.00,VWS V14.00,2013-01-12 10:19:00,
2013-01-12 03:24:00,21.9,-8.5,25.19,West,271,4.9,5.4,25,0.00,,---,0.00,VWS V14.00,2013-01-12 10:24:00,
2013-01-12 03:29:00,21.4,-9.0,25.19,West,271,3.6,4.0,25,0.00,,---,0.00,VWS V14.00,2013-01-12 10:29:00,
2013-01-12 03:34:00,21.0,-9.3,25.19,West,271,5.8,5.8,25,0.00,,---,0.00,VWS V14.00,2013-01-12 10:34:00,
2013-01-12 03:39:00,20.7,-9.6,25.19,West,271,4.0,5.8,25,0.00,,---,0.00,VWS V14.00,2013-01-12 10:39:00,
2013-01-12 03:44:00,20.3,-9.9,25.19,West,271,4.0,4.0,25,0.00,,---,0.00,VWS V14.00,2013-01-12 10:44:00,
2013-01-12 03:49:00,20.3,-9.9,25.19,West,271,4.5,4.5,25,0.00,,---,0.00,VWS V14.00,2013-01-12 10:49:00,
2013-01-12 03:54:00,20.1,-10.1,25.19,West,271,4.5,4.9,25,0.00,,---,0.00,VWS V14.00,2013-01-12 10:54:00,
2013-01-12 03:59:00,19.8,-10.4,25.19,West,271,4.9,5.8,25,0.00,,---,0.00,VWS V14.00,2013-01-12 10:59:00,
2013-01-12 04:05:00,19.8,-10.4,25.19,West,271,4.9,5.4,25,0.00,,---,0.00,VWS V14.00,2013-01-12 11:05:00,
2013-01-12 04:10:00,19.9,-10.2,25.19,West,271,4.9,5.4,25,0.00,,---,0.00,VWS V14.00,2013-01-12 11:10:00,
2013-01-12 04:15:00,19.9,-10.2,25.19,West,271,4.9,5.4,25,0.00,,---,0.00,VWS V14.00,2013-01-12 11:15:00,
2013-01-12 04:20:00,19.8,-10.4,25.19,West,271,5.8,5.8,25,0.00,,---,0.00,VWS V14.00,2013-01-12 11:20:00,
2013-01-12 04:25:00,19.8,-10.4,25.16,West,271,3.1,4.0,25,0.00,,---,0.00,VWS V14.00,2013-01-12 11:25:00,
2013-01-12 04:30:00,19.8,-10.4,25.16,West,270,5.4,5.8,25,0.00,,---,0.00,VWS V14.00,2013-01-12 11:30:00,
2013-01-12 04:35:00,19.6,-10.5,25.16,WSW,254,5.4,5.4,25,0.00,,---,0.00,VWS V14.00,2013-01-12 11:35:00,
2013-01-12 04:40:00,19.6,-10.5,25.16,WSW,254,5.4,5.4,25,0.00,,---,0.00,VWS V14.00,2013-01-12 11:40:00,
2013-01-12 04:45:00,19.6,-10.5,25.16,WSW,254,6.3,6.3,25,0.00,,---,0.00,VWS V14.00,2013-01-12 11:45:00,
2013-01-12 04:51:00,19.6,-10.5,25.16,WSW,254,5.4,5.8,25,0.00,,---,0.00,VWS V14.00,2013-01-12 11:51:00,
2013-01-12 04:56:00,19.6,-10.5,25.16,WSW,254,6.3,6.3,25,0.00,,---,0.00,VWS V14.00,2013-01-12 11:56:00,
2013-01-12 05:01:00,19.6,-10.5,25.16,WSW,254,5.4,6.3,25,0.00,,---,0.00,VWS V14.00,2013-01-12 12:01:00,
2013-01-12 05:06:00,19.8,-10.4,25.16,WSW,253,5.4,6.3,25,0.00,,---,0.00,VWS V14.00,2013-01-12 12:06:00,
2013-01-12 05:11:00,19.8,-10.4,25.19,WSW,253,6.3,6.3,25,0.00,,---,0.00,VWS V14.00,2013-01-12 12:11:00,
2013-01-12 05:16:00,19.6,-10.5,25.19,WSW,253,5.4,5.8,25,0.00,,---,0.00,VWS V14.00,2013-01-12 12:16:00,
2013-01-12 05:21:00,19.4,-10.7,25.19,WSW,253,5.4,5.8,25,0.00,,---,0.00,VWS V14.00,2013-01-12 12:21:00,
2013-01-12 05:26:00,19.2,-10.8,25.19,WSW,253,5.8,6.3,25,0.00,,---,0.00,VWS V14.00,2013-01-12 12:26:00,
2013-01-12 05:31:00,19.2,-10.8,25.19,WSW,253,5.4,5.4,25,0.00,,---,0.00,VWS V14.00,2013-01-12 12:31:00,
2013-01-12 05:36:00,19.9,-10.2,25.19,WSW,253,6.3,6.3,25,0.00,,---,0.00,VWS V14.00,2013-01-12 12:36:00,
2013-01-12 05:42:00,20.5,-9.7,25.19,WSW,253,4.0,4.9,25,0.00,,---,0.00,VWS V14.00,2013-01-12 12:42:00,
2013-01-12 05:47:00,20.5,-9.7,25.19,WSW,253,5.8,5.8,25,0.00,,---,0.00,VWS V14.00,2013-01-12 12:47:00,
2013-01-12 05:52:00,19.9,-10.2,25.19,WSW,253,4.9,5.4,25,0.00,,---,0.00,VWS V14.00,2013-01-12 12:52:00,
2013-01-12 05:57:00,19.6,-10.5,25.19,WSW,253,4.5,5.4,25,0.00,,---,0.00,VWS V14.00,2013-01-12 12:57:00,
2013-01-12 06:02:00,19.4,-10.7,25.19,WSW,253,5.4,5.4,25,0.00,,---,0.00,VWS V14.00,2013-01-12 13:02:00,
2013-01-12 06:07:00,18.9,-11.1,25.19,WSW,253,4.0,4.0,25,0.00,,---,0.00,VWS V14.00,2013-01-12 13:07:00,
2013-01-12 06:12:00,18.3,-11.6,25.19,WSW,253,4.0,4.0,25,0.00,,---,0.00,VWS V14.00,2013-01-12 13:12:00,
2013-01-12 06:17:00,18.1,-11.8,25.19,WSW,253,3.1,3.6,25,0.00,,---,0.00,VWS V14.00,2013-01-12 13:17:00,
2013-01-12 06:23:00,18.1,-11.8,25.19,WSW,253,5.8,5.8,25,0.00,,---,0.00,VWS V14.00,2013-01-12 13:23:00,
2013-01-12 06:28:00,18.3,-11.6,25.19,WSW,253,3.6,3.6,25,0.00,,---,0.00,VWS V14.00,2013-01-12 13:28:00,
2013-01-12 06:33:00,18.9,-11.1,25.19,WSW,253,4.0,4.9,25,0.00,,---,0.00,VWS V14.00,2013-01-12 13:33:00,
2013-01-12 06:38:00,18.5,-11.4,25.19,WSW,253,4.9,4.9,25,0.00,,---,0.00,VWS V14.00,2013-01-12 13:38:00,
2013-01-12 06:43:00,18.3,-11.6,25.19,WSW,253,4.9,4.9,25,0.00,,---,0.00,VWS V14.00,2013-01-12 13:43:00,
2013-01-12 06:48:00,18.1,-11.8,25.19,WSW,253,4.0,4.0,25,0.00,,---,0.00,VWS V14.00,2013-01-12 13:48:00,
2013-01-12 06:53:00,18.1,-11.8,25.19,WSW,253,4.0,4.9,25,0.00,,---,0.00,VWS V14.00,2013-01-12 13:53:00,
2013-01-12 06:58:00,18.0,-11.9,25.19,WSW,253,5.4,5.4,25,0.00,,---,0.00,VWS V14.00,2013-01-12 13:58:00,
2013-01-12 07:03:00,17.8,-12.1,25.19,WSW,253,4.0,4.0,25,0.00,,---,0.00,VWS V14.00,2013-01-12 14:03:00,
2013-01-12 07:09:00,17.6,-11.4,25.22,WSW,253,4.9,5.4,26,0.00,,---,0.00,VWS V14.00,2013-01-12 14:09:00,
2013-01-12 07:14:00,17.8,-12.1,25.22,WSW,253,5.8,5.8,25,0.00,,---,0.00,VWS V14.00,2013-01-12 14:14:00,
2013-01-12 07:19:00,18.1,-11.8,25.22,WSW,253,4.9,4.9,25,0.00,,---,0.00,VWS V14.00,2013-01-12 14:19:00,
2013-01-12 07:24:00,18.3,-11.6,25.22,WSW,253,4.5,4.9,25,0.00,,---,0.00,VWS V14.00,2013-01-12 14:24:00,
2013-01-12 07:29:00,18.5,-11.4,25.22,WSW,253,4.9,4.9,25,0.00,,---,0.00,VWS V14.00,2013-01-12 14:29:00,
2013-01-12 07:34:00,19.0,-11.0,25.22,WSW,253,4.5,4.5,25,0.00,,---,0.00,VWS V14.00,2013-01-12 14:34:00,
2013-01-12 07:39:00,19.6,-10.5,25.22,WSW,253,3.6,4.0,25,0.00,,---,0.00,VWS V14.00,2013-01-12 14:39:00,
2013-01-12 07:44:00,20.5,-9.7,25.22,WSW,253,3.6,4.5,25,0.00,,---,0.00,VWS V14.00,2013-01-12 14:44:00,
2013-01-12 07:49:00,21.2,-9.1,25.22,WSW,253,3.1,3.6,25,0.00,,---,0.00,VWS V14.00,2013-01-12 14:49:00,
2013-01-12 07:55:00,22.3,-8.2,25.22,WSW,253,0.0,0.0,25,0.00,,---,0.00,VWS V14.00,2013-01-12 14:55:00,
2013-01-12 08:00:00,23.4,-8.1,25.22,WSW,253,0.0,0.0,24,0.00,,---,0.00,VWS V14.00,2013-01-12 15:00:00,
2013-01-12 08:05:00,24.3,-4.9,25.22,WSW,253,0.0,0.0,27,0.00,,---,0.00,VWS V14.00,2013-01-12 15:05:00,
2013-01-12 08:10:00,25.3,-4.7,25.22,WSW,253,0.0,0.0,26,0.00,,---,0.00,VWS V14.00,2013-01-12 15:10:00,
2013-01-12 08:15:00,26.6,-3.7,25.22,WSW,253,0.0,0.0,26,0.00,,---,0.00,VWS V14.00,2013-01-12 15:15:00,
2013-01-12 08:20:00,27.9,-5.1,25.22,WSW,253,0.0,0.0,23,0.00,,---,0.00,VWS V14.00,2013-01-12 15:20:00,
2013-01-12 08:25:00,29.1,-4.1,25.22,WSW,253,0.0,0.0,23,0.00,,---,0.00,VWS V14.00,2013-01-12 15:25:00,
2013-01-12 08:30:00,29.8,-3.4,25.22,WSW,253,0.0,0.0,23,0.00,,---,0.00,VWS V14.00,2013-01-12 15:30:00,
2013-01-12 08:35:00,30.6,-2.8,25.22,WSW,253,0.0,0.0,23,0.00,,---,0.00,VWS V14.00,2013-01-12 15:35:00,
2013-01-12 08:40:00,31.1,-2.4,25.22,WSW,253,0.0,0.0,23,0.00,,---,0.00,VWS V14.00,2013-01-12 15:40:00,
2013-01-12 08:46:00,31.6,-1.9,25.22,WSW,253,0.0,0.0,23,0.00,,---,0.00,VWS V14.00,2013-01-12 15:46:00,
2013-01-12 08:51:00,32.0,-1.6,25.22,WSW,253,2.2,2.2,23,0.00,,---,0.00,VWS V14.00,2013-01-12 15:51:00,
2013-01-12 08:56:00,32.4,-1.3,25.25,WSW,253,0.0,0.0,23,0.00,,---,0.00,VWS V14.00,2013-01-12 15:56:00,
2013-01-12 09:01:00,32.7,-1.0,25.25,WSW,253,0.0,3.6,23,0.00,,---,0.00,VWS V14.00,2013-01-12 16:01:00,
2013-01-12 09:06:00,32.9,-0.8,25.25,NE,35,5.4,6.3,23,0.00,,---,0.00,VWS V14.00,2013-01-12 16:06:00,
2013-01-12 09:11:00,32.7,-1.0,25.25,NE,41,5.8,6.3,23,0.00,,---,0.00,VWS V14.00,2013-01-12 16:11:00,
2013-01-12 09:16:00,32.2,-1.4,25.25,NE,40,4.0,4.9,23,0.00,,---,0.00,VWS V14.00,2013-01-12 16:16:00,
2013-01-12 09:21:00,32.0,-1.6,25.25,NNE,25,0.0,3.6,23,0.00,,---,0.00,VWS V14.00,2013-01-12 16:21:00,
2013-01-12 09:26:00,31.8,-1.8,25.25,NNE,28,2.7,3.1,23,0.00,,---,0.00,VWS V14.00,2013-01-12 16:26:00,
2013-01-12 09:31:00,32.0,-1.6,25.25,NNE,29,2.2,4.0,23,0.00,,---,0.00,VWS V14.00,2013-01-12 16:31:00,
2013-01-12 09:37:00,32.2,-1.4,25.25,North,357,0.0,4.0,23,0.00,,---,0.00,VWS V14.00,2013-01-12 16:37:00,
2013-01-12 09:42:00,32.4,-1.3,25.25,NE,42,3.1,5.4,23,0.00,,---,0.00,VWS V14.00,2013-01-12 16:42:00,
2013-01-12 09:47:00,32.7,-1.0,25.25,NNE,27,2.2,3.6,23,0.00,,---,0.00,VWS V14.00,2013-01-12 16:47:00,
2013-01-12 09:52:00,33.1,-0.7,25.25,NNE,31,0.0,0.0,23,0.00,,---,0.00,VWS V14.00,2013-01-12 16:52:00,
2013-01-12 09:57:00,33.6,-0.2,25.25,ENE,68,4.0,4.0,23,0.00,,---,0.00,VWS V14.00,2013-01-12 16:57:00,
2013-01-12 10:02:00,33.4,-0.4,25.25,NE,49,0.0,2.2,23,0.00,,---,0.00,VWS V14.00,2013-01-12 17:02:00,
2013-01-12 10:07:00,33.4,-0.4,25.25,NNE,27,0.0,2.2,23,0.00,,---,0.00,VWS V14.00,2013-01-12 17:07:00,
2013-01-12 10:12:00,34.0,-0.9,25.25,NNE,23,6.3,6.3,22,0.00,,---,0.00,VWS V14.00,2013-01-12 17:12:00,
2013-01-12 10:17:00,34.5,-0.4,25.25,NNE,28,0.0,3.6,22,0.00,,---,0.00,VWS V14.00,2013-01-12 17:17:00,
2013-01-12 10:22:00,34.7,-0.2,25.25,ENE,58,3.6,8.1,22,0.00,,---,0.00,VWS V14.00,2013-01-12 17:22:00,
2013-01-12 10:28:00,34.7,-0.2,25.25,NE,43,6.3,6.3,22,0.00,,---,0.00,VWS V14.00,2013-01-12 17:28:00,
2013-01-12 10:33:00,35.1,0.1,25.25,NE,45,8.3,8.3,22,0.00,,---,0.00,VWS V14.00,2013-01-12 17:33:00,
2013-01-12 10:38:00,35.1,0.1,25.25,NNE,26,0.0,4.9,22,0.00,,---,0.00,VWS V14.00,2013-01-12 17:38:00,
2013-01-12 10:43:00,35.2,0.2,25.25,NNE,30,4.9,4.9,22,0.00,,---,0.00,VWS V14.00,2013-01-12 17:43:00,
2013-01-12 10:48:00,35.8,0.7,25.25,NNE,28,0.0,0.0,22,0.00,,---,0.00,VWS V14.00,2013-01-12 17:48:00,
2013-01-12 10:53:00,36.3,1.1,25.25,NE,44,3.1,4.5,22,0.00,,---,0.00,VWS V14.00,2013-01-12 17:53:00,
2013-01-12 10:58:00,36.9,1.6,25.25,North,10,4.9,5.8,22,0.00,,---,0.00,VWS V14.00,2013-01-12 17:58:00,
2013-01-12 11:03:00,37.4,1.0,25.25,WNW,299,10.5,12.8,21,0.00,,---,0.00,VWS V14.00,2013-01-12 18:03:00,
2013-01-12 11:08:00,37.0,1.7,25.25,SW,231,6.3,10.5,22,0.00,,---,0.00,VWS V14.00,2013-01-12 18:08:00,
2013-01-12 11:14:00,36.5,1.3,25.25,WSW,251,8.7,13.2,22,0.00,,---,0.00,VWS V14.00,2013-01-12 18:14:00,
2013-01-12 11:19:00,36.1,1.0,25.25,WNW,292,7.6,8.7,22,0.00,,---,0.00,VWS V14.00,2013-01-12 18:19:00,
2013-01-12 11:24:00,36.5,1.3,25.25,WNW,289,13.2,14.5,22,0.00,,---,0.00,VWS V14.00,2013-01-12 18:24:00,
2013-01-12 11:29:00,36.9,1.6,25.25,West,273,10.5,15.9,22,0.00,,---,0.00,VWS V14.00,2013-01-12 18:29:00,
2013-01-12 11:34:00,37.0,1.7,25.25,West,281,15.4,15.4,22,0.00,,---,0.00,VWS V14.00,2013-01-12 18:34:00,
2013-01-12 11:39:00,37.0,1.7,25.22,SW,227,8.7,11.0,22,0.00,,---,0.00,VWS V14.00,2013-01-12 18:39:00,
2013-01-12 11:44:00,36.5,1.3,25.22,West,265,11.0,13.2,22,0.00,,---,0.00,VWS V14.00,2013-01-12 18:44:00,
2013-01-12 11:49:00,35.4,0.4,25.22,West,276,15.4,16.8,22,0.00,,---,0.00,VWS V14.00,2013-01-12 18:49:00,
2013-01-12 11:54:00,35.6,0.5,25.22,WNW,289,12.3,12.8,22,0.00,,---,0.00,VWS V14.00,2013-01-12 18:54:00,
2013-01-12 11:59:00,35.4,0.4,25.22,WNW,286,11.0,12.3,22,0.00,,---,0.00,VWS V14.00,2013-01-12 18:59:00,
2013-01-12 12:05:00,35.1,0.1,25.22,WSW,244,8.1,12.8,22,0.00,,---,0.00,VWS V14.00,2013-01-12 19:05:00,
2013-01-12 12:10:00,34.9,-0.1,25.22,SW,231,7.6,8.3,22,0.00,,---,0.00,VWS V14.00,2013-01-12 19:10:00,
2013-01-12 12:15:00,34.9,-0.1,25.22,WSW,245,11.0,15.4,22,0.00,,---,0.00,VWS V14.00,2013-01-12 19:15:00,
2013-01-12 12:20:00,35.6,0.5,25.22,SW,226,8.1,11.0,22,0.00,,---,0.00,VWS V14.00,2013-01-12 19:20:00,
2013-01-12 12:25:00,36.3,1.1,25.22,SW,230,13.2,19.2,22,0.00,,---,0.00,VWS V14.00,2013-01-12 19:25:00,
2013-01-12 12:30:00,36.1,1.0,25.22,SW,236,8.7,12.3,22,0.00,,---,0.00,VWS V14.00,2013-01-12 19:30:00,
2013-01-12 12:35:00,35.8,0.7,25.22,SW,223,11.0,12.3,22,0.00,,---,0.00,VWS V14.00,2013-01-12 19:35:00,
2013-01-12 12:40:00,35.2,0.2,25.22,SW,214,12.8,13.2,22,0.00,,---,0.00,VWS V14.00,2013-01-12 19:40:00,
2013-01-12 12:45:00,35.1,0.1,25.22,SW,234,12.8,12.8,22,0.00,,---,0.00,VWS V14.00,2013-01-12 19:45:00,
2013-01-12 12:50:00,35.2,0.2,25.22,WSW,249,8.1,11.9,22,0.00,,---,0.00,VWS V14.00,2013-01-12 19:50:00,
2013-01-12 12:56:00,35.1,0.1,25.22,WSW,254,8.3,8.3,22,0.00,,---,0.00,VWS V14.00,2013-01-12 19:56:00,
2013-01-12 13:01:00,34.9,-0.1,25.22,WSW,240,10.1,11.0,22,0.00,,---,0.00,VWS V14.00,2013-01-12 20:01:00,
2013-01-12 13:06:00,35.1,0.1,25.22,WSW,247,8.7,12.3,22,0.00,,---,0.00,VWS V14.00,2013-01-12 20:06:00,
2013-01-12 13:11:00,35.1,0.1,25.22,West,261,13.2,13.2,22,0.00,,---,0.00,VWS V14.00,2013-01-12 20:11:00,
2013-01-12 13:16:00,35.6,0.5,25.22,West,275,13.2,13.2,22,0.00,,---,0.00,VWS V14.00,2013-01-12 20:16:00,
2013-01-12 13:21:00,35.8,0.7,25.22,SW,230,8.1,8.7,22,0.00,,---,0.00,VWS V14.00,2013-01-12 20:21:00,
2013-01-12 13:26:00,36.3,1.1,25.22,WSW,239,8.1,10.1,22,0.00,,---,0.00,VWS V14.00,2013-01-12 20:26:00,
2013-01-12 13:31:00,36.7,1.4,25.22,West,262,10.5,12.8,22,0.00,,---,0.00,VWS V14.00,2013-01-12 20:31:00,
2013-01-12 13:36:00,36.7,1.4,25.22,West,262,15.9,18.8,22,0.00,,---,0.00,VWS V14.00,2013-01-12 20:36:00,
2013-01-12 13:41:00,36.1,1.0,25.22,WSW,258,11.9,17.4,22,0.00,,---,0.00,VWS V14.00,2013-01-12 20:41:00,
2013-01-12 13:47:00,36.0,0.8,25.22,WNW,303,10.5,17.4,22,0.00,,---,0.00,VWS V14.00,2013-01-12 20:47:00,
2013-01-12 13:52:00,36.0,0.8,25.22,West,274,16.3,16.3,22,0.00,,---,0.00,VWS V14.00,2013-01-12 20:52:00,
2013-01-12 13:57:00,36.0,0.8,25.22,WNW,287,11.0,13.2,22,0.00,,---,0.00,VWS V14.00,2013-01-12 20:57:00,
2013-01-12 14:02:00,36.7,1.4,25.22,SW,220,13.2,13.2,22,0.00,,---,0.00,VWS V14.00,2013-01-12 21:02:00,
2013-01-12 14:07:00,36.7,1.4,25.22,WSW,257,11.0,11.0,22,0.00,,---,0.00,VWS V14.00,2013-01-12 21:07:00,
2013-01-12 14:12:00,36.1,1.0,25.22,WSW,252,17.4,17.4,22,0.00,,---,0.00,VWS V14.00,2013-01-12 21:12:00,
2013-01-12 14:17:00,36.3,1.1,25.22,West,263,15.0,15.0,22,0.00,,---,0.00,VWS V14.00,2013-01-12 21:17:00,
2013-01-12 14:22:00,37.0,1.7,25.22,WSW,248,12.8,16.3,22,0.00,,---,0.00,VWS V14.00,2013-01-12 21:22:00,
2013-01-12 14:28:00,37.0,1.7,25.22,WSW,248,13.2,13.2,22,0.00,,---,0.00,VWS V14.00,2013-01-12 21:28:00,
2013-01-12 14:33:00,37.2,1.9,25.22,WSW,237,6.3,12.8,22,0.00,,---,0.00,VWS V14.00,2013-01-12 21:33:00,
2013-01-12 14:38:00,37.2,1.9,25.22,WSW,252,11.0,15.4,22,0.00,,---,0.00,VWS V14.00,2013-01-12 21:38:00,
2013-01-12 14:43:00,37.0,1.7,25.22,WSW,246,12.3,12.3,22,0.00,,---,0.00,VWS V14.00,2013-01-12 21:43:00,
2013-01-12 14:48:00,37.4,1.0,25.22,West,264,20.1,20.1,21,0.00,,---,0.00,VWS V14.00,2013-01-12 21:48:00,
2013-01-12 14:53:00,37.0,1.7,25.22,WSW,256,15.0,16.3,22,0.00,,---,0.00,VWS V14.00,2013-01-12 21:53:00,
2013-01-12 14:58:00,37.2,1.9,25.22,WSW,248,12.3,13.2,22,0.00,,---,0.00,VWS V14.00,2013-01-12 21:58:00,
2013-01-12 15:03:00,37.0,1.7,25.22,WSW,247,14.1,15.0,22,0.00,,---,0.00,VWS V14.00,2013-01-12 22:03:00,
2013-01-12 15:09:00,37.0,1.7,25.22,NW,304,8.1,11.0,22,0.00,,---,0.00,VWS V14.00,2013-01-12 22:09:00,
2013-01-12 15:14:00,36.5,1.3,25.22,West,277,8.7,8.7,22,0.00,,---,0.00,VWS V14.00,2013-01-12 22:14:00,
2013-01-12 15:19:00,35.8,0.7,25.22,WSW,246,11.4,12.8,22,0.00,,---,0.00,VWS V14.00,2013-01-12 22:19:00,
2013-01-12 15:24:00,36.3,1.1,25.22,West,264,8.7,10.1,22,0.00,,---,0.00,VWS V14.00,2013-01-12 22:24:00,
2013-01-12 15:29:00,36.9,1.6,25.22,SW,235,10.1,12.3,22,0.00,,---,0.00,VWS V14.00,2013-01-12 22:29:00,
2013-01-12 15:34:00,37.2,1.9,25.22,West,273,12.8,15.4,22,0.00,,---,0.00,VWS V14.00,2013-01-12 22:34:00,
2013-01-12 15:39:00,37.2,1.9,25.22,WNW,286,7.6,12.3,22,0.00,,---,0.00,VWS V14.00,2013-01-12 22:39:00,
2013-01-12 15:44:00,37.0,1.7,25.22,SW,230,4.0,6.3,22,0.00,,---,0.00,VWS V14.00,2013-01-12 22:44:00,
2013-01-12 15:50:00,37.0,1.7,25.22,WSW,242,13.2,13.2,22,0.00,,---,0.00,VWS V14.00,2013-01-12 22:50:00,
2013-01-12 15:55:00,36.9,1.6,25.22,NW,304,8.7,12.3,22,0.00,,---,0.00,VWS V14.00,2013-01-12 22:55:00,
2013-01-12 16:00:00,36.5,1.3,25.22,SW,225,10.1,10.1,22,0.00,,---,0.00,VWS V14.00,2013-01-12 23:00:00,
2013-01-12 16:05:00,36.5,1.3,25.22,SW,236,8.7,8.7,22,0.00,,---,0.00,VWS V14.00,2013-01-12 23:05:00,
2013-01-12 16:10:00,36.5,1.3,25.22,West,280,15.0,15.4,22,0.00,,---,0.00,VWS V14.00,2013-01-12 23:10:00,
2013-01-12 16:15:00,36.3,1.1,25.22,WNW,282,10.1,11.0,22,0.00,,---,0.00,VWS V14.00,2013-01-12 23:15:00,
2013-01-12 16:20:00,36.0,0.8,25.22,WSW,255,12.3,12.3,22,0.00,,---,0.00,VWS V14.00,2013-01-12 23:20:00,
2013-01-12 16:26:00,36.0,0.8,25.22,West,279,10.1,12.3,22,0.00,,---,0.00,VWS V14.00,2013-01-12 23:26:00,
2013-01-12 16:31:00,35.6,0.5,25.22,WSW,244,5.8,10.5,22,0.00,,---,0.00,VWS V14.00,2013-01-12 23:31:00,
2013-01-12 16:36:00,35.6,0.5,25.22,WSW,253,10.1,11.0,22,0.00,,---,0.00,VWS V14.00,2013-01-12 23:36:00,
2013-01-12 16:41:00,34.9,-0.1,25.22,WSW,240,7.6,7.6,22,0.00,,---,0.00,VWS V14.00,2013-01-12 23:41:00,
2013-01-12 16:46:00,34.0,-0.9,25.22,WSW,257,7.6,7.6,22,0.00,,---,0.00,VWS V14.00,2013-01-12 23:46:00,
2013-01-12 16:51:00,33.4,-0.4,25.22,WSW,246,8.3,10.1,23,0.00,,---,0.00,VWS V14.00,2013-01-12 23:51:00,
2013-01-12 16:56:00,33.3,-0.5,25.22,SSW,212,12.8,15.9,23,0.00,,---,0.00,VWS V14.00,2013-01-12 23:56:00,
2013-01-12 17:01:00,33.1,-0.7,25.22,WSW,241,8.1,9.6,23,0.00,,---,0.00,VWS V14.00,2013-01-13 00:01:00,
2013-01-12 17:07:00,32.7,-1.0,25.22,SW,230,5.4,8.1,23,0.00,,---,0.00,VWS V14.00,2013-01-13 00:07:00,
2013-01-12 17:12:00,32.5,-1.1,25.22,WSW,237,11.9,11.9,23,0.00,,---,0.00,VWS V14.00,2013-01-13 00:12:00,
2013-01-12 17:17:00,32.5,-1.1,25.22,West,274,10.5,10.5,23,0.00,,---,0.00,VWS V14.00,2013-01-13 00:17:00,
2013-01-12 17:22:00,32.5,-1.1,25.22,WSW,246,8.1,8.1,23,0.00,,---,0.00,VWS V14.00,2013-01-13 00:22:00,
2013-01-12 17:27:00,32.2,-1.4,25.22,WSW,248,7.6,8.1,23,0.00,,---,0.00,VWS V14.00,2013-01-13 00:27:00,
2013-01-12 17:32:00,32.2,-1.4,25.22,West,269,10.1,10.1,23,0.00,,---,0.00,VWS V14.00,2013-01-13 00:32:00,
2013-01-12 17:37:00,32.0,-1.6,25.22,WSW,242,5.8,8.3,23,0.00,,---,0.00,VWS V14.00,2013-01-13 00:37:00,
2013-01-12 17:43:00,31.6,-1.9,25.25,WSW,244,5.8,6.7,23,0.00,,---,0.00,VWS V14.00,2013-01-13 00:43:00,
2013-01-12 17:48:00,31.5,-2.0,25.25,WSW,245,8.1,8.1,23,0.00,,---,0.00,VWS V14.00,2013-01-13 00:48:00,
2013-01-12 17:53:00,31.1,-2.4,25.25,WSW,253,8.7,8.7,23,0.00,,---,0.00,VWS V14.00,2013-01-13 00:53:00,
2013-01-12 17:58:00,30.7,-2.7,25.25,WSW,253,5.8,5.8,23,0.00,,---,0.00,VWS V14.00,2013-01-13 00:58:00,
2013-01-12 18:03:00,30.6,-2.8,25.25,WSW,250,8.1,8.3,23,0.00,,---,0.00,VWS V14.00,2013-01-13 01:03:00,
2013-01-12 18:08:00,30.4,-3.0,25.25,WSW,249,8.7,8.7,23,0.00,,---,0.00,VWS V14.00,2013-01-13 01:08:00,
2013-01-12 18:13:00,30.2,-3.1,25.25,West,259,5.8,6.3,23,0.00,,---,0.00,VWS V14.00,2013-01-13 01:13:00,
2013-01-12 18:18:00,29.7,-3.6,25.25,West,263,5.8,6.3,23,0.00,,---,0.00,VWS V14.00,2013-01-13 01:18:00,
2013-01-12 18:24:00,28.9,-4.2,25.25,West,262,5.4,5.8,23,0.00,,---,0.00,VWS V14.00,2013-01-13 01:24:00,
2013-01-12 18:29:00,28.2,-4.8,25.25,West,262,4.0,4.9,23,0.00,,---,0.00,VWS V14.00,2013-01-13 01:29:00,
2013-01-12 18:34:00,27.5,-5.4,25.25,West,262,2.7,2.7,23,0.00,,---,0.00,VWS V14.00,2013-01-13 01:34:00,
2013-01-12 18:39:00,27.1,-5.7,25.25,West,262,3.1,3.1,23,0.00,,---,0.00,VWS V14.00,2013-01-13 01:39:00,
2013-01-12 18:44:00,27.0,-5.9,25.25,West,262,3.6,5.4,23,0.00,,---,0.00,VWS V14.00,2013-01-13 01:44:00,
2013-01-12 18:49:00,27.1,-5.7,25.25,West,262,5.4,5.4,23,0.00,,---,0.00,VWS V14.00,2013-01-13 01:49:00,
2013-01-12 18:54:00,27.0,-5.9,25.25,West,262,5.4,5.4,23,0.00,,---,0.00,VWS V14.00,2013-01-13 01:54:00,
2013-01-12 19:00:00,26.4,-5.5,25.25,West,262,5.4,5.8,24,0.00,,---,0.00,VWS V14.00,2013-01-13 02:00:00,
2013-01-12 19:05:00,25.9,-5.9,25.25,West,262,4.0,4.9,24,0.00,,---,0.00,VWS V14.00,2013-01-13 02:05:00,
2013-01-12 19:10:00,25.3,-6.4,25.25,West,262,5.4,5.4,24,0.00,,---,0.00,VWS V14.00,2013-01-13 02:10:00,
2013-01-12 19:15:00,24.4,-7.2,25.25,West,262,5.4,5.4,24,0.00,,---,0.00,VWS V14.00,2013-01-13 02:15:00,
2013-01-12 19:20:00,23.5,-7.9,25.25,West,262,5.4,5.4,24,0.00,,---,0.00,VWS V14.00,2013-01-13 02:20:00,
2013-01-12 19:25:00,22.8,-7.7,25.25,West,262,3.1,3.1,25,0.00,,---,0.00,VWS V14.00,2013-01-13 02:25:00,
2013-01-12 19:30:00,22.5,-8.0,25.25,West,262,4.9,4.9,25,0.00,,---,0.00,VWS V14.00,2013-01-13 02:30:00,
2013-01-12 19:35:00,22.1,-8.3,25.25,West,262,5.4,5.4,25,0.00,,---,0.00,VWS V14.00,2013-01-13 02:35:00,
2013-01-12 19:41:00,21.9,-8.5,25.25,West,262,5.8,5.8,25,0.00,,---,0.00,VWS V14.00,2013-01-13 02:41:00,
2013-01-12 19:46:00,21.9,-8.5,25.25,West,262,4.5,5.4,25,0.00,,---,0.00,VWS V14.00,2013-01-13 02:46:00,
2013-01-12 19:51:00,22.1,-8.3,25.25,West,262,5.4,5.4,25,0.00,,---,0.00,VWS V14.00,2013-01-13 02:51:00,
2013-01-12 19:56:00,21.9,-8.5,25.28,West,260,5.4,5.8,25,0.00,,---,0.00,VWS V14.00,2013-01-13 02:56:00,
2013-01-12 20:01:00,21.7,-8.6,25.28,WSW,243,4.0,4.9,25,0.00,,---,0.00,VWS V14.00,2013-01-13 03:01:00,
2013-01-12 20:06:00,21.7,-8.6,25.28,WSW,243,4.9,5.4,25,0.00,,---,0.00,VWS V14.00,2013-01-13 03:06:00,
2013-01-12 20:11:00,21.7,-8.6,25.28,WSW,244,5.4,5.8,25,0.00,,---,0.00,VWS V14.00,2013-01-13 03:11:00,
2013-01-12 20:17:00,21.2,-9.1,25.28,WSW,244,4.5,4.9,25,0.00,,---,0.00,VWS V14.00,2013-01-13 03:17:00,
2013-01-12 20:22:00,21.2,-9.1,25.28,WSW,244,4.0,5.8,25,0.00,,---,0.00,VWS V14.00,2013-01-13 03:22:00,
2013-01-12 20:27:00,21.4,-9.0,25.28,WSW,244,4.0,5.4,25,0.00,,---,0.00,VWS V14.00,2013-01-13 03:27:00,
2013-01-12 20:32:00,21.4,-9.0,25.28,WSW,244,4.9,4.9,25,0.00,,---,0.00,VWS V14.00,2013-01-13 03:32:00,
2013-01-12 20:37:00,21.7,-8.6,25.28,WSW,244,4.9,5.4,25,0.00,,---,0.00,VWS V14.00,2013-01-13 03:37:00,
2013-01-12 20:42:00,21.9,-8.5,25.28,WSW,244,5.4,5.4,25,0.00,,---,0.00,VWS V14.00,2013-01-13 03:42:00,
2013-01-12 20:47:00,21.9,-8.5,25.28,WSW,246,5.8,5.8,25,0.00,,---,0.00,VWS V14.00,2013-01-13 03:47:00,
2013-01-12 20:52:00,21.9,-8.5,25.28,WSW,246,5.8,5.8,25,0.00,,---,0.00,VWS V14.00,2013-01-13 03:52:00,
2013-01-12 20:57:00,21.9,-8.5,25.28,WSW,246,5.4,5.4,25,0.00,,---,0.00,VWS V14.00,2013-01-13 03:57:00,
2013-01-12 21:03:00,21.6,-8.8,25.28,WSW,247,4.9,4.9,25,0.00,,---,0.00,VWS V14.00,2013-01-13 04:03:00,
2013-01-12 21:08:00,21.2,-9.1,25.28,WSW,246,4.9,5.4,25,0.00,,---,0.00,VWS V14.00,2013-01-13 04:08:00,
2013-01-12 21:13:00,21.2,-9.1,25.28,WSW,246,5.4,5.8,25,0.00,,---,0.00,VWS V14.00,2013-01-13 04:13:00,
2013-01-12 21:18:00,21.2,-9.1,25.28,WSW,247,5.8,5.8,25,0.00,,---,0.00,VWS V14.00,2013-01-13 04:18:00,
2013-01-12 21:23:00,21.2,-9.1,25.28,WSW,248,5.4,5.4,25,0.00,,---,0.00,VWS V14.00,2013-01-13 04:23:00,
2013-01-12 21:28:00,21.2,-9.1,25.28,West,271,5.4,5.8,25,0.00,,---,0.00,VWS V14.00,2013-01-13 04:28:00,
2013-01-12 21:33:00,21.4,-9.0,25.28,West,270,3.6,4.5,25,0.00,,---,0.00,VWS V14.00,2013-01-13 04:33:00,
2013-01-12 21:38:00,21.6,-8.8,25.28,West,270,3.6,3.6,25,0.00,,---,0.00,VWS V14.00,2013-01-13 04:38:00,
2013-01-12 21:43:00,21.4,-9.0,25.28,West,270,3.1,4.0,25,0.00,,---,0.00,VWS V14.00,2013-01-13 04:43:00,
2013-01-12 21:49:00,21.0,-9.3,25.28,West,270,2.7,3.1,25,0.00,,---,0.00,VWS V14.00,2013-01-13 04:49:00,
2013-01-12 21:54:00,20.8,-9.4,25.28,West,270,5.4,5.4,25,0.00,,---,0.00,VWS V14.00,2013-01-13 04:54:00,
2013-01-12 21:59:00,20.3,-9.9,25.28,West,270,4.5,5.4,25,0.00,,---,0.00,VWS V14.00,2013-01-13 04:59:00,
2013-01-12 22:02:00,20.1,-10.1,25.28,West,270,4.0,4.0,25,0.00,,---,0.00,VWS V14.00,2013-01-13 05:02:00,
2013-01-12 22:03:00,20.1,-10.1,25.28,West,270,4.0,4.5,25,0.00,,---,0.00,VWS V14.00,2013-01-13 05:03:00,
2013-01-12 22:08:00,19.8,-10.4,25.28,West,270,3.1,4.9,25,0.00,,---,0.00,VWS V14.00,2013-01-13 05:08:00,
2013-01-12 22:12:00,19.9,-10.2,25.28,West,270,3.6,3.6,25,0.00,,---,0.00,VWS V14.00,2013-01-13 05:12:00,
2013-01-12 22:17:00,20.1,-10.1,25.28,West,270,4.0,4.9,25,0.00,,---,0.00,VWS V14.00,2013-01-13 05:17:00,
2013-01-12 22:22:00,20.1,-10.1,25.28,West,270,4.0,4.0,25,0.00,,---,0.00,VWS V14.00,2013-01-13 05:22:00,
2013-01-12 22:27:00,19.9,-10.2,25.28,West,270,4.9,5.8,25,0.00,,---,0.00,VWS V14.00,2013-01-13 05:27:00,
2013-01-12 22:32:00,19.9,-10.2,25.28,West,270,4.9,5.4,25,0.00,,---,0.00,VWS V14.00,2013-01-13 05:32:00,
2013-01-12 22:37:00,20.1,-10.1,25.28,West,270,4.9,5.4,25,0.00,,---,0.00,VWS V14.00,2013-01-13 05:37:00,
2013-01-12 22:42:00,20.8,-9.4,25.28,West,270,6.3,6.3,25,0.00,,---,0.00,VWS V14.00,2013-01-13 05:42:00,
2013-01-12 22:47:00,21.6,-8.8,25.28,West,270,6.3,6.3,25,0.00,,---,0.00,VWS V14.00,2013-01-13 05:47:00,
2013-01-12 22:52:00,21.9,-8.5,25.28,West,270,5.4,5.4,25,0.00,,---,0.00,VWS V14.00,2013-01-13 05:52:00,
2013-01-12 22:58:00,21.9,-8.5,25.28,West,277,5.4,5.8,25,0.00,,---,0.00,VWS V14.00,2013-01-13 05:58:00,
2013-01-12 23:03:00,21.6,-8.8,25.28,West,277,5.4,5.8,25,0.00,,---,0.00,VWS V14.00,2013-01-13 06:03:00,
2013-01-12 23:08:00,21.7,-8.6,25.28,West,277,4.0,4.0,25,0.00,,---,0.00,VWS V14.00,2013-01-13 06:08:00,
2013-01-12 23:13:00,21.7,-8.6,25.28,West,277,3.6,4.0,25,0.00,,---,0.00,VWS V14.00,2013-01-13 06:13:00,
2013-01-12 23:18:00,21.2,-9.1,25.28,West,277,5.4,5.4,25,0.00,,---,0.00,VWS V14.00,2013-01-13 06:18:00,
2013-01-12 23:23:00,20.3,-9.9,25.31,West,277,5.4,5.4,25,0.00,,---,0.00,VWS V14.00,2013-01-13 06:23:00,
2013-01-12 23:28:00,19.6,-10.5,25.31,West,277,4.0,4.5,25,0.00,,---,0.00,VWS V14.00,2013-01-13 06:28:00,
2013-01-12 23:33:00,19.2,-10.8,25.31,West,277,5.4,5.4,25,0.00,,---,0.00,VWS V14.00,2013-01-13 06:33:00,
2013-01-12 23:38:00,19.2,-10.8,25.31,West,277,4.0,5.4,25,0.00,,---,0.00,VWS V14.00,2013-01-13 06:38:00,
2013-01-12 23:43:00,19.6,-10.5,25.31,West,277,0.0,5.4,25,0.00,,---,0.00,VWS V14.00,2013-01-13 06:43:00,
2013-01-12 23:49:00,19.2,-10.8,25.31,West,277,0.0,0.0,25,0.00,,---,0.00,VWS V14.00,2013-01-13 06:49:00,
2013-01-12 23:54:00,18.5,-11.4,25.31,West,277,0.0,0.0,25,0.00,,---,0.00,VWS V14.00,2013-01-13 06:54:00,
2013-01-12 23:59:00,18.3,-11.6,25.31,West,277,0.0,0.0,25,0.00,,---,0.00,VWS V14.00,2013-01-13 06:59:00,